Location: Unspecified
(20.0000°S, 0.0000°E)
Time: 05:50:51
(UTC+00:00)

ISS - Pass Details

Date: 25 May 2019
Orbit: 407 x 418 km, 51.6° (Epoch: 20 June)

Event Time Altitude Azimuth Distance (km) Brightness Sun altitude
Exits shadow 04:56:16 24° 163° (SSE) 921 -2.1 -20.6°
Drops below altitude 10° 04:57:48 10° 153° (SSE) 1,503 -0.8 -20.2°
Sets 04:59:57 0° 147° (SSE) 2,369 0.3 -19.8°
